Wind_Speed
23 24 25 25 25 25 28 31 31 31 32 31 32 35 35 34 35 36 36 35 35 34 34 35 37 38 40 41 42 43 44 45 45 45 44 43 41 40 39 38 37 37
20 22 23 24 24 26 30 32 29 28 29 30 32 35 35 35 36 37 36 36 35 35 36 38 40 41 42 43 43 45 46 46 45 44 43 41 40 40 39 38 38 38
17 20 21 22 23 27 31 31 27 23 25 29 32 34 35 36 36 36 36 36 36 37 39 40 41 42 43 44 45 46 46 46 43 42 41 41 40 40 40 40 39 39
16 19 22 23 23 25 28 27 24 23 25 27 29 31 34 34 34 35 36 37 38 39 41 42 43 44 44 45 46 46 45 43 41 40 40 40 40 41 41 41 40 39
18 19 21 23 24 25 26 26 25 25 26 27 27 30 32 33 34 36 37 38 39 41 43 44 44 45 45 45 44 43 41 39 39 39 40 40 41 41 41 41 41 39
27 25 24 24 25 26 26 27 27 27 27 27 28 30 32 33 35 37 39 40 41 43 44 45 45 45 43 41 40 38 38 38 38 40 41 41 41 41 41 41 40 39
29 28 28 28 28 27 26 26 27 28 29 29 30 31 33 35 38 39 40 42 43 44 44 45 44 41 38 37 36 37 37 38 39 40 41 41 41 41 41 41 40 39
28 28 29 29 29 28 26 27 28 28 29 30 31 33 35 37 40 42 43 42 41 41 43 43 40 36 35 35 36 37 38 39 41 42 42 42 42 42 42 41 40 38
31 33 32 30 29 29 29 29 29 29 31 32 34 36 38 40 42 42 41 39 38 39 40 38 36 35 35 36 38 39 40 41 42 43 44 44 44 44 44 42 41 39
35 34 32 29 30 32 32 31 31 32 35 36 38 40 41 42 42 42 40 39 38 37 37 35 35 35 36 38 40 41 42 43 43 44 46 46 47 46 45 44 42 40
34 31 31 31 32 33 33 33 34 37 38 39 41 42 43 44 45 44 41 39 37 36 35 35 35 36 38 40 42 43 44 45 45 47 48 48 48 47 46 45 43 41
35 31 31 34 34 33 34 36 38 40 41 42 44 45 45 47 48 45 41 39 37 35 34 35 36 39 41 42 44 45 47 48 49 50 51 51 49 48 46 44 43 42
38 35 33 35 35 35 37 39 42 44 45 46 48 49 48 48 48 46 42 40 37 35 35 36 38 41 43 44 46 47 49 50 52 53 53 53 51 49 46 44 43 42
38 37 35 36 38 38 40 44 46 48 49 51 53 53 49 46 47 47 44 40 37 37 37 38 40 42 44 46 48 49 50 53 54 55 54 53 52 49 47 45 43 43
39 39 39 40 42 43 45 48 50 52 53 53 53 52 48 46 49 48 42 37 36 37 39 42 44 46 47 48 50 51 53 56 57 57 54 52 51 49 47 45 44 43
40 42 42 43 45 46 47 49 51 52 51 50 50 49 47 48 50 45 38 36 38 40 42 45 48 49 50 51 52 54 56 59 59 57 54 51 49 48 46 45 44 44
41 42 43 44 46 48 48 49 50 50 49 48 48 48 48 50 47 41 38 41 43 44 46 48 49 51 52 53 55 58 59 60 58 56 53 51 49 47 46 45 45 45
42 43 45 47 47 47 48 48 49 49 49 48 48 49 50 48 43 41 44 47 47 48 50 51 52 53 55 57 59 60 59 58 57 55 52 50 48 47 47 46 46 47
42 43 44 46 46 46 47 48 48 49 48 48 48 48 45 42 42 45 48 50 50 52 53 54 55 56 58 59 60 59 58 56 55 54 52 51 50 49 48 48 49 50
35 34 33 35 36 38 39 38 38 40 41 42 43 43 42 44 47 49 51 52 54 54 55 56 58 59 60 60 59 58 56 55 54 53 53 51 51 51 51 51 52 52
37 36 36 36 35 35 35 34 34 36 37 39 42 43 45 47 50 52 53 55 55 55 57 58 59 60 60 59 58 57 55 54 54 54 53 53 53 54 54 55 55 55
41 41 42 41 39 37 37 39 40 41 42 44 45 47 49 50 52 54 55 55 56 57 58 59 60 59 59 58 57 57 56 55 55 54 54 55 55 56 56 57 57 56
43 42 41 41 39 38 39 42 45 46 46 48 49 50 52 53 54 55 55 56 57 57 58 59 59 58 57 57 57 57 57 56 55 55 55 55 55 56 56 56 56 55
42 42 41 41 41 41 41 43 45 47 49 51 52 54 55 55 55 56 56 56 57 57 57 57 57 56 56 56 56 56 56 56 55 55 54 53 53 52 51 50 49 48
43 43 43 43 43 44 45 46 48 49 51 53 54 55 56 55 56 56 55 55 55 55 55 55 55 55 55 55 55 55 55 53 52 51 50 48 47 45 44 43 43 42
42 43 43 43 44 44 45 47 48 50 51 51 51 51 51 51 51 51 51 51 51 52 52 53 54 54 54 54 53 52 49 47 45 44 44 43 41 41 41 41 41 40
Wind_Direction
263 261 258 257 256 255 256 257 258 257 257 257 252 246 245 247 251 255 259 263 267 271 277 281 285 287 288 290 292 294 296 297 298 299 299 300 301 301 302 303 304 305
260 261 262 262 261 261 257 253 254 258 260 259 254 248 248 252 256 260 262 266 270 274 279 282 285 286 288 290 292 294 295 296 296 297 297 298 299 299 301 302 302 302
264 260 260 262 262 264 259 251 251 257 260 259 255 251 253 257 261 264 266 270 274 278 281 283 285 286 289 291 293 293 293 293 294 295 295 296 297 298 299 300 300 301
263 259 257 257 258 263 264 259 258 258 256 256 255 254 257 262 265 267 270 273 277 279 281 283 285 287 289 291 291 290 290 291 292 293 294 295 296 297 298 298 299 300
265 262 260 259 260 262 264 263 262 258 256 257 257 258 262 265 267 269 272 276 278 280 282 284 286 288 289 288 287 287 288 289 290 291 291 293 294 296 297 298 298 299
268 261 261 263 263 263 262 261 259 258 257 259 260 262 265 267 269 272 275 277 279 280 282 284 286 286 285 284 284 285 286 287 288 289 291 293 295 297 298 298 298 297
268 260 259 259 258 256 255 254 254 255 257 259 261 263 266 268 270 272 273 275 277 280 282 283 283 282 281 282 284 285 286 286 288 290 292 295 297 298 299 299 298 296
261 255 251 251 252 252 251 250 250 252 256 259 261 263 264 266 267 269 270 273 275 277 278 278 278 279 282 285 286 286 287 288 290 292 294 297 299 300 301 299 297 295
254 247 242 241 245 249 249 248 249 252 255 256 258 259 261 263 265 267 270 271 272 272 272 273 276 281 285 286 287 288 289 291 293 295 297 299 300 301 301 299 296 293
248 248 245 243 245 246 246 246 248 250 251 252 254 256 259 261 264 268 268 267 267 267 267 271 277 283 286 288 290 292 293 295 297 299 301 300 299 300 300 298 295 291
251 251 247 246 249 249 249 251 251 250 251 253 255 258 259 260 263 267 265 262 264 265 266 273 279 284 288 291 294 296 298 300 302 303 303 302 300 299 298 296 293 289
264 259 250 246 247 249 252 255 254 254 255 256 257 260 262 263 265 266 261 259 263 265 269 275 281 285 290 293 296 298 300 301 302 303 303 303 301 299 296 293 290 287
267 263 256 247 245 248 251 253 254 254 254 255 256 259 263 266 266 265 261 261 265 268 271 277 283 287 291 293 294 297 299 300 301 303 303 302 300 297 294 291 288 284
259 257 254 247 244 245 247 249 251 251 252 254 255 257 263 268 267 265 263 263 266 270 275 281 286 290 293 294 294 295 297 298 300 301 301 299 297 294 291 288 285 282
260 258 257 249 243 243 245 248 250 250 251 253 256 260 266 269 266 264 265 267 271 277 283 288 291 293 295 296 295 294 296 297 298 298 297 295 292 289 287 285 283 280
264 261 256 247 243 244 246 248 250 252 255 257 261 265 267 267 267 269 273 277 280 284 288 291 292 293 294 295 295 294 295 296 296 295 293 290 288 286 284 283 281 279
260 257 252 247 245 246 249 252 254 256 259 262 265 267 266 265 267 273 279 281 282 285 288 290 291 291 292 293 293 293 293 293 293 291 289 287 285 283 282 280 279 277
257 253 249 246 246 247 250 253 255 257 261 265 267 265 263 264 269 277 281 282 284 286 287 289 290 290 291 291 291 291 291 291 290 288 286 284 282 281 280 279 277 276
261 257 254 253 253 255 255 255 258 262 267 270 270 267 268 272 277 280 282 283 285 286 287 288 290 290 290 290 290 289 288 287 286 285 283 282 282 281 280 278 276 274
281 276 276 278 278 276 273 271 274 277 278 278 277 276 277 278 279 280 281 283 284 286 287 288 288 288 288 288 287 286 285 284 283 282 282 282 281 280 279 277 275 273
297 293 294 296 297 293 287 285 287 287 284 281 280 280 279 279 279 279 280 282 283 285 286 286 287 287 286 286 285 283 282 282 281 281 281 281 280 278 277 275 273 272
297 296 295 296 296 293 288 286 287 285 282 280 280 280 279 279 279 279 280 282 283 284 284 285 285 285 285 284 283 282 281 281 280 280 279 278 277 276 275 274 273 272
293 293 292 291 288 284 281 280 280 280 279 278 278 278 278 279 279 280 281 283 283 284 284 284 284 284 283 282 282 282 282 281 281 279 278 276 275 274 273 272 272 271
290 289 287 284 281 278 276 275 275 276 277 278 278 278 279 280 280 281 282 282 283 283 283 283 283 282 282 282 282 282 282 282 281 279 277 275 273 272 270 269 268 267
288 287 285 283 281 279 278 276 276 276 276 277 277 278 279 280 280 281 281 281 282 282 281 282 282 282 282 282 282 282 281 280 279 277 275 272 271 269 267 265 264 263
290 289 288 287 285 283 280 279 278 278 278 278 278 278 279 279 279 279 279 280 280 281 281 281 281 282 282 282 281 280 279 277 274 272 270 269 268 267 266 265 263 262
Height
3124 3125 3126 3127 3128 3128 3128 3128 3128 3128 3129 3130 3131 3131 3132 3132 3133 3133 3135 3135 3135 3135 3134 3133 3133 3132 3131 3130 3129 3128 3127 3126 3126 3125 3124 3124 3124 3123 3123 3123 3122 3122
3122 3123 3124 3125 3125 3125 3123 3123 3123 3124 3125 3126 3127 3128 3129 3129 3129 3130 3131 3131 3131 3131 3130 3130 3129 3128 3128 3127 3125 3124 3123 3122 3121 3120 3120 3120 3120 3119 3119 3119 3118 3118
3120 3121 3122 3122 3122 3120 3118 3118 3120 3122 3122 3123 3124 3125 3126 3126 3126 3127 3127 3127 3127 3127 3126 3126 3125 3125 3124 3123 3121 3120 3119 3118 3117 3117 3116 3116 3115 3115 3114 3114 3113 3113
3119 3119 3119 3119 3119 3118 3116 3117 3119 3119 3120 3120 3121 3122 3122 3122 3123 3123 3123 3123 3123 3123 3122 3122 3121 3121 3120 3119 3117 3116 3115 3114 3113 3113 3112 3112 3111 3110 3110 3109 3109 3108
3117 3118 3118 3117 3116 3115 3115 3115 3115 3116 3116 3116 3117 3118 3118 3118 3118 3118 3119 3119 3119 3118 3118 3118 3117 3117 3116 3114 3113 3112 3111 3110 3109 3108 3107 3107 3107 3106 3105 3104 3104 3103
3112 3113 3114 3113 3112 3111 3111 3111 3111 3112 3112 3112 3112 3113 3113 3113 3113 3114 3114 3115 3114 3114 3113 3113 3113 3112 3111 3110 3108 3108 3107 3106 3105 3104 3103 3102 3102 3101 3100 3099 3098 3098
3106 3107 3107 3107 3107 3106 3106 3106 3106 3107 3107 3108 3108 3108 3108 3109 3109 3109 3109 3109 3109 3109 3108 3108 3108 3107 3106 3105 3104 3103 3102 3101 3100 3099 3098 3097 3096 3095 3095 3093 3092 3092
3102 3102 3102 3101 3101 3101 3101 3101 3101 3102 3103 3104 3104 3104 3104 3104 3104 3104 3104 3103 3103 3103 3103 3103 3103 3102 3101 3100 3099 3098 3097 3096 3095 3093 3092 3091 3090 3089 3089 3088 3087 3086
3097 3096 3096 3096 3096 3096 3096 3096 3097 3098 3099 3099 3100 3099 3099 3099 3099 3099 3098 3098 3098 3098 3098 3098 3098 3097 3096 3095 3094 3093 3092 3091 3089 3088 3087 3085 3084 3084 3083 3082 3081 3081
3090 3090 3090 3091 3092 3092 3092 3092 3093 3094 3094 3094 3094 3093 3093 3093 3093 3093 3093 3092 3092 3092 3092 3092 3092 3091 3090 3089 3088 3087 3086 3085 3083 3082 3081 3080 3079 3078 3077 3076 3076 3075
3086 3086 3086 3088 3089 3089 3089 3089 3090 3089 3089 3089 3088 3087 3087 3087 3087 3087 3087 3087 3086 3086 3086 3086 3085 3085 3083 3082 3081 3080 3079 3078 3077 3076 3075 3074 3074 3072 3071 3071 3070 3070
3085 3084 3084 3085 3085 3085 3085 3086 3085 3085 3084 3084 3082 3081 3081 3080 3080 3081 3080 3080 3079 3079 3080 3079 3078 3077 3076 3075 3074 3073 3072 3071 3071 3070 3069 3068 3067 3066 3066 3065 3064 3064
3079 3080 3080 3080 3080 3080 3080 3080 3079 3079 3078 3077 3075 3074 3073 3073 3073 3073 3073 3073 3073 3073 3072 3072 3071 3070 3070 3069 3068 3067 3066 3065 3064 3063 3062 3061 3060 3060 3059 3059 3058 3058
3073 3073 3073 3073 3073 3073 3073 3072 3072 3071 3070 3069 3067 3067 3067 3067 3067 3066 3066 3066 3066 3066 3065 3065 3064 3064 3063 3063 3062 3061 3060 3059 3058 3057 3056 3055 3054 3053 3053 3053 3052 3052
3068 3068 3067 3066 3066 3066 3065 3065 3065 3064 3063 3062 3061 3062 3062 3062 3060 3059 3059 3060 3060 3059 3059 3059 3058 3058 3057 3057 3056 3055 3054 3052 3051 3051 3050 3049 3048 3047 3047 3046 3046 3046
3063 3062 3061 3061 3060 3059 3059 3059 3059 3058 3058 3058 3057 3057 3057 3055 3054 3054 3056 3056 3055 3053 3053 3053 3052 3051 3051 3050 3049 3048 3047 3046 3045 3044 3043 3042 3041 3040 3040 3040 3040 3039
3055 3055 3055 3055 3054 3054 3054 3054 3054 3054 3054 3053 3052 3051 3050 3049 3049 3051 3052 3051 3049 3048 3047 3046 3046 3045 3044 3043 3043 3042 3040 3039 3038 3037 3036 3035 3034 3034 3033 3033 3033 3033
3049 3049 3048 3048 3047 3047 3048 3048 3048 3048 3048 3047 3046 3044 3043 3044 3045 3046 3045 3044 3043 3041 3040 3040 3039 3038 3037 3036 3036 3034 3033 3031 3030 3029 3028 3028 3027 3027 3026 3026 3026 3026
3045 3045 3044 3043 3043 3043 3042 3042 3042 3042 3042 3042 3041 3040 3041 3041 3041 3040 3038 3037 3036 3035 3034 3033 3031 3030 3030 3029 3028 3026 3025 3023 3022 3021 3020 3020 3020 3020 3019 3019 3018 3018
3042 3042 3042 3041 3041 3040 3039 3039 3039 3039 3038 3038 3037 3037 3037 3036 3034 3033 3032 3030 3029 3028 3026 3025 3023 3022 3022 3021 3020 3018 3017 3015 3015 3014 3013 3012 3012 3011 3011 3010 3010 3010
3039 3038 3037 3037 3037 3037 3035 3034 3034 3034 3033 3033 3032 3031 3029 3028 3027 3026 3025 3023 3021 3020 3018 3017 3016 3015 3014 3012 3011 3010 3009 3008 3007 3006 3005 3004 3003 3002 3002 3001 3001 3001
3034 3033 3032 3031 3031 3030 3030 3029 3028 3027 3027 3026 3025 3023 3022 3020 3019 3018 3016 3015 3013 3012 3010 3009 3007 3006 3005 3003 3002 3001 3000 2999 2999 2998 2997 2996 2995 2994 2993 2993 2993 2993
3028 3028 3027 3026 3024 3024 3023 3022 3021 3020 3019 3018 3016 3015 3014 3012 3011 3009 3008 3006 3005 3003 3002 3000 2999 2997 2996 2994 2993 2992 2991 2990 2990 2989 2989 2988 2987 2986 2985 2985 2985 2984
3021 3021 3020 3019 3018 3017 3016 3015 3014 3013 3011 3010 3008 3007 3006 3004 3002 3001 2999 2998 2996 2995 2993 2991 2990 2988 2987 2986 2985 2984 2982 2982 2981 2980 2979 2979 2978 2978 2977 2977 2976 2976
3015 3013 3012 3011 3010 3010 3009 3007 3006 3005 3004 3003 3001 2999 2998 2996 2994 2992 2991 2990 2988 2986 2985 2983 2981 2980 2979 2978 2977 2976 2974 2974 2973 2971 2970 2970 2970 2970 2969 2969 2968 2968
3007 3006 3005 3003 3002 3001 3000 2999 2998 2997 2996 2994 2993 2992 2990 2988 2986 2984 2983 2982 2980 2978 2977 2975 2973 2973 2972 2970 2970 2969 2967 2966 2965 2963 2962 2962 2962 2962 2962 2961 2961 2961